{"data":{"norad_id":44349,"epoch":"2026-05-25T04:13:03.294912Z","epoch_age_seconds":56878,"freshness":"FRESH","line1":"1 44349U 19036L   26145.17573258  .00002072  00000+0  15253-3 0  9998","line2":"2 44349  23.9963 187.5188 0000397 259.9750 100.0706 14.96393556381201","mean_motion":14.96393556,"eccentricity":3.97e-5,"inclination_deg":23.9963,"raan_deg":187.5188,"arg_perigee_deg":259.975,"mean_anomaly_deg":100.0706,"bstar":0.00015253,"rev_number":38120,"period_min":96.231368694828,"perigee_km":577.77448044468,"apogee_km":578.32680174338,"semimajor_km":6956.187641094,"source":"CELESTRAK","updated_at":"2026-05-25T13:37:55.970083Z"}}